Lapse_Rate
5.0 5.5 7.6 8.2 8.7 9.6 9.8 9.6 8.9 8.3 8.6 9.3 9.5 9.8 9.5 9.3 8.8 7.3 9.0 8.5 5.7 8.0 6.3 2.7 2.3 1.9 1.9 2.0 1.9 1.6 1.7 1.9 2.0 2.0 1.7 1.5 1.4 1.7
6.6 6.6 7.3 7.7 9.1 9.5 9.6 9.7 9.6 9.0 8.5 9.5 9.7 10.0 9.7 9.5 9.4 8.3 8.4 6.2 8.7 8.7 8.0 7.0 3.9 3.1 3.1 2.0 1.9 2.1 2.3 2.5 2.4 2.3 2.1 2.0 1.7 1.7
6.6 6.6 6.4 7.6 9.7 9.7 9.7 9.8 9.6 9.6 8.9 9.4 10.0 10.1 10.0 10.0 9.8 9.3 9.0 9.1 9.3 8.9 8.3 6.3 4.9 4.4 4.0 3.6 2.8 2.5 2.9 2.5 1.8 1.6 1.6 1.7 1.7 1.1
7.3 7.8 7.9 9.4 9.6 9.6 9.7 9.6 9.6 9.7 9.5 9.1 9.7 9.8 9.9 10.1 10.1 10.2 9.9 9.5 9.2 8.4 5.4 5.3 6.0 6.2 5.8 4.8 4.7 4.1 3.0 2.4 2.4 1.8 1.1 0.9 0.9 0.7
8.1 8.6 8.0 9.4 9.6 9.7 9.8 9.7 9.8 10.0 9.8 9.7 9.4 9.9 10.0 10.2 10.0 10.1 10.2 10.0 9.7 8.6 8.7 9.0 9.2 7.0 6.0 4.9 4.4 4.1 4.1 3.6 3.0 2.9 1.9 1.2 0.7 0.1
6.4 6.5 9.2 9.5 8.3 9.6 9.7 9.8 9.8 9.7 9.7 9.6 9.6 9.7 9.8 9.9 10.1 9.8 9.6 10.1 10.0 9.8 9.5 9.4 8.7 8.8 7.3 7.4 7.3 5.9 5.7 5.5 4.8 3.8 3.0 1.8 1.6 0.9
7.1 7.5 8.3 4.1 3.5 4.0 6.5 8.0 9.5 9.6 9.6 9.6 9.4 9.6 9.5 9.5 9.5 9.8 9.7 9.8 9.9 10.2 10.1 10.1 10.3 9.9 9.7 9.3 9.4 9.3 7.4 5.9 5.4 4.4 3.7 2.9 2.0 1.6
9.3 9.3 9.8 5.4 7.4 6.5 4.9 4.8 4.9 7.0 8.9 9.5 9.4 9.4 9.4 9.6 9.8 9.6 9.5 9.2 9.0 9.9 9.9 9.6 9.9 9.9 10.2 9.7 9.2 7.5 6.9 6.1 3.8 3.1 3.5 3.3 3.1 3.2
9.6 9.6 9.3 9.2 8.9 8.8 8.2 6.8 9.0 7.8 7.2 9.0 9.4 9.5 9.4 9.8 9.8 9.4 9.5 9.5 9.4 9.9 10.2 9.8 9.8 9.4 9.8 9.6 8.4 5.4 5.1 6.2 6.1 7.3 7.2 7.4 6.5 4.5
7.7 8.7 9.7 9.9 8.0 5.1 5.5 7.8 9.4 10.1 9.9 7.6 8.9 9.2 9.0 7.5 8.6 9.8 9.6 9.8 9.8 10.0 10.1 9.7 9.6 9.6 9.5 8.8 6.3 6.4 7.4 7.6 7.1 6.6 4.9 5.4 5.7 6.3
6.3 6.2 6.3 8.8 3.6 3.3 5.4 7.7 9.1 9.8 7.3 5.1 4.7 4.9 5.1 5.3 6.6 8.6 9.4 9.3 8.9 9.2 9.8 10.0 9.5 9.3 9.3 9.3 9.4 9.3 9.0 7.7 6.6 5.8 5.0 4.8 5.0 5.5
6.7 6.3 2.4 3.0 2.8 3.0 4.9 8.0 9.0 8.5 6.0 5.4 6.1 6.7 7.3 8.9 8.1 9.8 10.0 9.2 9.1 8.7 9.6 10.0 9.2 9.5 8.5 9.8 9.3 9.4 9.4 8.8 6.9 6.7 7.1 6.5 6.7 7.9
5.9 5.6 5.3 2.1 2.4 2.5 2.8 6.9 5.5 4.0 4.6 7.2 8.3 9.6 9.8 10.1 9.8 9.2 9.4 10.0 9.2 9.1 9.9 10.3 9.6 9.3 8.9 9.4 9.7 10.0 9.5 9.3 9.4 8.3 6.4 7.2 9.0 9.0
4.4 4.5 3.7 1.7 1.9 1.8 2.7 2.4 2.5 2.6 7.5 8.2 9.4 9.4 9.5 9.6 9.8 9.4 8.2 9.3 8.9 10.1 9.9 9.9 9.7 9.6 9.2 9.2 9.5 9.6 9.3 9.3 9.4 9.0 9.1 8.2 8.3 8.1
3.0 1.5 0.8 1.0 1.4 2.7 1.5 1.4 2.1 7.0 7.6 8.2 9.1 9.4 9.7 9.8 9.5 9.8 9.5 9.4 9.3 9.4 9.6 9.6 10.4 9.7 9.3 9.4 9.5 9.5 9.2 9.2 9.4 8.9 9.8 9.5 9.6 9.6
3.0 3.5 1.4 1.8 1.8 1.0 3.8 5.4 6.6 7.7 5.6 8.7 9.3 9.6 9.7 9.7 9.6 9.9 9.6 9.7 9.5 9.5 9.6 9.6 9.8 9.8 9.3 9.8 9.8 9.3 9.5 9.5 9.6 9.5 9.7 9.8 9.8 9.8
1.8 4.5 5.3 5.2 5.1 5.7 6.9 7.2 8.4 8.6 9.0 9.2 9.1 9.2 9.3 9.5 9.5 9.7 9.6 9.6 9.3 9.3 9.3 9.8 9.7 9.9 9.9 9.4 9.2 9.6 9.9 9.9 10.2 9.9 9.7 9.8 9.9 10.0
4.3 5.7 6.1 6.0 6.6 6.7 8.4 7.3 7.5 8.8 9.1 6.9 9.1 9.2 9.2 9.2 9.2 9.4 9.6 9.4 9.2 9.2 9.6 9.5 10.0 10.1 9.7 9.5 9.9 9.9 9.8 9.5 9.7 9.8 9.4 9.3 9.4 9.5
6.2 7.2 7.6 7.0 7.5 8.1 8.0 8.2 8.9 9.3 7.5 9.3 9.3 9.2 9.3 9.2 9.6 9.2 9.3 9.3 9.2 9.2 9.3 9.5 9.8 9.9 9.1 8.9 6.6 8.3 9.2 8.9 9.2 9.3 9.3 9.6 9.1 9.4
6.9 7.9 8.1 7.9 8.3 8.2 8.1 9.1 9.2 9.4 9.4 9.2 9.1 9.3 9.3 9.3 9.1 9.1 9.2 9.3 9.1 9.1 9.4 9.3 9.3 9.3 9.3 9.4 8.8 5.6 7.8 8.9 9.0 9.0 9.0 9.3 9.3 8.5
9.0 8.4 8.7 8.8 8.5 8.0 8.1 9.1 9.3 9.4 9.0 9.2 9.3 9.3 9.3 9.3 9.1 9.2 9.2 9.1 9.3 9.2 9.2 9.6 9.2 9.4 9.6 9.7 9.4 9.3 8.5 7.0 9.2 8.6 8.6 8.4 8.8 8.7
9.2 9.1 9.0 8.7 7.3 7.1 8.6 9.3 9.5 9.5 9.4 9.4 9.3 9.3 9.4 9.4 9.2 9.1 9.1 9.1 9.1 9.2 9.6 9.7 9.3 10.0 9.7 9.3 9.2 8.9 9.5 8.0 6.9 8.2 8.5 7.0 7.1 7.8
9.3 9.3 8.9 8.7 7.8 8.4 9.0 9.4 9.4 9.3 9.4 9.3 9.3 9.4 9.2 9.1 9.4 9.4 9.4 9.4 9.5 9.6 9.3 10.0 9.2 10.2 9.3 9.8 9.0 9.2 8.7 8.7 9.2 8.7 8.4 8.3 6.5 5.2
Wind_Speed
5 4 4 4 3 3 4 4 3 5 8 5 9 13 16 19 20 21 21 22 24 18 19 24 28 29 28 28 29 29 28 29 32 32 31 32 32 32
3 4 3 3 2 3 3 3 3 3 5 8 10 12 18 19 20 23 23 24 19 16 20 23 24 29 30 31 30 28 27 28 29 31 32 33 33 32
3 4 4 3 3 3 3 3 5 4 6 9 10 11 13 14 18 21 22 22 21 21 23 25 28 27 30 28 27 28 27 29 35 34 35 34 33 31
3 4 4 3 4 4 4 6 6 6 7 11 11 10 12 13 13 14 16 22 23 25 29 30 28 25 24 25 26 32 35 32 33 32 32 33 34 35
4 4 5 5 5 5 6 5 6 6 7 8 10 9 10 10 13 12 12 17 19 27 29 28 23 24 28 34 33 31 31 31 30 31 31 32 32 33
5 5 5 6 7 8 7 7 8 8 8 8 9 9 10 12 11 12 13 12 13 21 26 23 19 32 32 31 30 30 29 27 27 32 32 32 31 32
5 4 6 7 6 8 6 8 9 8 8 8 9 9 10 12 13 12 13 13 14 14 14 13 16 20 23 28 28 25 29 32 34 35 37 34 33 32
4 2 3 2 4 1 4 6 8 9 9 8 9 11 14 13 11 13 14 14 16 15 15 15 18 14 14 23 27 34 35 40 38 34 32 32 31 30
3 3 3 2 9 7 6 6 7 6 9 9 12 12 14 14 15 15 16 15 15 14 16 14 13 14 16 23 33 42 39 33 29 26 27 31 29 27
4 4 3 5 7 9 9 8 9 9 8 10 12 13 13 16 15 14 17 18 14 12 14 16 13 12 12 22 35 34 28 23 26 36 36 32 31 29
3 2 4 6 10 11 9 8 9 9 13 16 18 20 19 20 18 12 12 13 14 13 13 13 12 16 15 14 15 23 24 37 35 36 36 34 32 28
1 0 5 7 9 11 9 8 9 10 13 14 12 16 17 17 17 14 12 13 14 14 10 14 14 13 12 12 9 17 18 29 37 36 33 33 31 15
1 2 2 7 8 8 9 7 9 12 12 10 10 9 10 10 11 16 17 12 14 15 16 14 14 13 12 16 13 13 15 15 16 18 29 29 28 22
1 2 3 7 7 7 8 10 12 11 7 8 9 9 10 10 10 16 20 20 22 19 25 21 13 14 14 16 17 14 15 15 14 16 15 22 25 25
2 4 6 7 6 5 6 9 10 6 7 8 9 10 10 11 17 13 18 22 23 25 23 23 14 15 13 16 17 16 17 15 14 14 12 14 14 13
2 2 3 6 6 6 6 5 5 6 7 8 9 10 10 10 11 11 12 13 13 13 22 23 21 17 14 15 16 17 16 15 15 15 15 14 14 13
4 3 4 4 5 5 5 5 6 6 8 8 9 10 10 11 11 11 12 12 13 14 14 14 22 21 15 19 15 16 16 15 14 16 17 16 14 14
4 3 4 4 5 6 6 6 7 8 8 9 9 10 11 11 12 12 12 12 14 14 15 15 15 15 15 16 19 14 16 16 15 17 18 16 16 14
4 4 4 5 5 6 6 7 8 8 9 9 10 10 10 11 13 12 12 13 14 14 15 15 14 14 16 17 19 20 13 17 17 17 15 14 16 15
4 4 5 5 6 6 7 7 8 8 9 9 10 10 10 11 12 13 13 14 15 16 15 15 15 14 15 17 20 23 30 16 16 17 17 16 17 29
4 5 5 5 6 6 7 7 9 9 9 10 10 10 10 11 12 13 14 18 18 15 16 16 16 25 16 16 16 18 17 30 25 19 19 18 19 17
4 5 5 5 6 6 7 8 8 9 9 9 10 10 10 11 12 14 14 15 15 15 15 15 17 15 15 14 18 24 19 20 27 30 32 31 18 19
5 5 5 5 6 6 7 8 9 9 9 10 10 10 11 11 13 13 14 14 14 15 16 16 16 14 15 16 19 17 27 25 18 20 18 25 29 31
Wind_Direction
80 71 60 49 31 10 350 358 359 331 323 340 333 334 329 329 332 334 330 341 318 321 319 323 322 319 317 314 312 308 304 300 297 294 292 290 286 282
79 79 66 55 46 33 348 339 335 334 294 323 320 326 327 323 332 331 330 320 323 326 328 320 317 313 311 310 307 304 302 301 301 295 292 290 287 285
84 75 70 41 51 12 347 4 331 338 312 311 312 319 321 328 329 329 325 323 323 324 322 321 312 308 307 306 303 302 300 305 300 294 293 291 288 288
77 72 59 43 26 14 346 1 334 325 322 308 311 320 323 327 321 323 322 320 321 316 323 316 314 312 312 308 306 302 300 300 299 296 294 291 288 287
79 65 47 22 24 354 6 353 326 327 318 311 312 318 321 321 327 321 323 319 315 319 315 317 315 315 310 306 302 300 299 298 296 295 294 292 290 288
67 56 42 22 17 358 358 351 331 325 325 313 314 318 322 333 324 327 324 323 323 317 315 316 304 313 309 307 303 299 299 298 301 300 296 293 289 288
71 65 59 38 12 7 345 349 324 331 325 323 319 322 325 329 329 328 321 320 318 314 318 323 311 311 311 310 303 305 312 304 299 297 295 292 288 286
86 78 110 64 299 282 357 325 320 323 317 320 319 320 318 325 325 326 317 318 316 318 317 307 308 310 309 306 312 304 300 305 299 293 291 289 283 279
75 51 43 321 269 344 347 305 282 258 264 301 309 313 317 323 323 314 314 311 307 313 309 304 308 308 303 306 311 304 300 299 293 292 305 300 294 291
59 31 348 300 23 335 340 336 321 312 327 321 311 310 315 317 312 309 308 297 301 306 314 304 310 301 315 307 301 299 295 300 303 301 298 296 295 290
92 87 343 312 12 344 323 322 313 314 324 314 308 302 303 303 307 309 308 313 308 312 314 301 317 315 309 298 289 299 305 305 295 297 295 293 289 286
172 291 138 343 344 339 324 313 316 323 322 320 318 318 315 314 313 309 312 310 309 309 314 315 312 316 309 295 298 306 289 297 296 290 290 293 289 282
235 273 342 353 333 333 323 313 326 321 309 311 315 313 313 315 317 317 313 309 304 299 307 311 306 300 286 296 295 298 295 295 295 296 292 289 286 280
292 322 342 337 329 325 318 336 320 300 313 316 313 316 315 316 317 315 308 306 300 297 303 299 293 298 298 295 297 299 293 293 292 291 290 285 281 271
358 356 330 314 313 290 328 314 302 320 320 317 319 314 315 313 310 310 311 309 304 302 300 301 299 300 300 293 296 298 298 296 289 280 289 291 286 282
328 307 308 291 266 264 281 317 316 323 320 309 314 311 311 315 317 320 318 316 311 310 312 310 307 304 302 292 294 292 290 288 290 286 285 284 283 277
309 293 311 324 322 324 317 317 313 324 315 322 312 316 317 319 319 322 318 315 313 316 315 315 315 308 295 288 288 290 294 290 293 299 294 290 285 282
252 303 312 318 315 317 317 322 322 318 325 317 316 318 317 319 320 317 317 316 315 316 314 317 316 308 308 294 286 297 302 293 293 299 293 287 287 282
270 299 300 308 311 312 317 320 317 318 317 310 316 314 316 315 316 317 317 317 315 315 314 313 312 316 315 309 306 301 299 294 294 289 282 279 280 282
278 291 298 303 305 311 317 317 312 312 311 317 311 313 314 314 315 316 317 316 315 314 308 310 314 317 314 303 300 298 296 284 289 293 292 287 280 278
270 284 293 296 305 312 314 308 306 304 312 305 308 313 313 313 313 313 312 312 313 310 311 307 308 306 295 296 291 295 300 296 289 287 289 284 282 281
274 284 294 301 306 308 306 305 302 308 310 309 312 310 312 315 309 311 312 313 312 309 305 305 307 311 307 304 300 300 302 304 300 292 280 267 268 271
270 286 294 299 302 302 301 304 305 307 308 309 307 312 315 308 310 309 311 311 309 312 307 310 311 310 306 302 301 301 303 307 308 308 301 297 283 260